Time,TemperatureF,DewpointF,PressureIn,WindDirection,WindDirectionDegrees,WindSpeedMPH,WindSpeedGustMPH,Humidity,HourlyPrecipIn,Conditions,Clouds,dailyrainin,SoftwareType,DateUTC
2013-09-22 00:01:00,67.1,60.7,29.63,ESE,112,2.3,2.3,80,0.00,CLR,,0.00,WeatherDisplay:10.37,2013-09-22 04:01:00,
2013-09-22 00:06:00,67.1,60.7,29.62,ENE,68,2.3,2.3,80,0.00,CLR,,0.00,WeatherDisplay:10.37,2013-09-22 04:06:00,
2013-09-22 00:11:00,67.1,60.7,29.62,NE,45,4.6,4.6,80,0.00,CLR,,0.00,WeatherDisplay:10.37,2013-09-22 04:11:00,
2013-09-22 00:16:00,67.1,60.7,29.62,ESE,112,5.3,5.3,80,0.00,CLR,,0.00,WeatherDisplay:10.37,2013-09-22 04:16:00,
2013-09-22 00:21:00,67.1,60.7,29.62,ESE,112,2.7,2.7,80,0.00,CLR,,0.00,WeatherDisplay:10.37,2013-09-22 04:21:00,
2013-09-22 00:26:00,67.1,60.7,29.61,ESE,112,5.3,5.3,80,0.00,CLR,,0.00,WeatherDisplay:10.37,2013-09-22 04:26:00,
2013-09-22 00:31:00,67.1,60.7,29.61,ESE,112,4.6,4.6,80,0.00,CLR,,0.00,WeatherDisplay:10.37,2013-09-22 04:31:00,
2013-09-22 00:37:00,67.1,60.7,29.61,East,90,1.2,1.2,80,0.00,CLR,,0.00,WeatherDisplay:10.37,2013-09-22 04:37:00,
2013-09-22 00:42:00,67.1,60.7,29.61,South,180,4.6,4.6,80,0.00,CLR,,0.00,WeatherDisplay:10.37,2013-09-22 04:42:00,
2013-09-22 00:47:00,66.9,60.5,29.61,ESE,112,2.7,2.7,80,0.00,CLR,,0.00,WeatherDisplay:10.37,2013-09-22 04:47:00,
2013-09-22 00:52:00,66.9,60.5,29.60,NE,45,2.3,2.3,80,0.00,CLR,,0.00,WeatherDisplay:10.37,2013-09-22 04:52:00,
2013-09-22 00:57:00,66.9,60.9,29.60,SE,135,2.3,2.3,81,0.00,CLR,,0.00,WeatherDisplay:10.37,2013-09-22 04:57:00,
2013-09-22 01:02:00,66.9,60.9,29.60,South,180,2.7,2.7,81,0.00,CLR,,0.00,WeatherDisplay:10.37,2013-09-22 05:02:00,
2013-09-22 01:07:00,66.9,60.9,29.60,NNE,22,4.6,4.6,81,0.00,CLR,,0.00,WeatherDisplay:10.37,2013-09-22 05:07:00,
2013-09-22 01:12:00,66.9,60.9,29.60,East,90,2.7,2.7,81,0.00,CLR,,0.00,WeatherDisplay:10.37,2013-09-22 05:12:00,
2013-09-22 01:17:00,66.9,60.9,29.59,SSE,158,2.3,2.3,81,0.00,CLR,,0.00,WeatherDisplay:10.37,2013-09-22 05:17:00,
2013-09-22 01:22:00,66.9,60.9,29.59,ESE,112,2.7,2.7,81,0.00,CLR,,0.00,WeatherDisplay:10.37,2013-09-22 05:22:00,
2013-09-22 01:27:00,66.9,60.9,29.59,ESE,112,2.3,2.3,81,0.00,CLR,,0.00,WeatherDisplay:10.37,2013-09-22 05:27:00,
2013-09-22 01:32:00,66.9,60.9,29.59,South,180,4.7,4.7,81,0.00,CLR,,0.00,WeatherDisplay:10.37,2013-09-22 05:32:00,
2013-09-22 01:37:00,66.9,61.2,29.59,SE,135,7.3,7.3,82,0.00,CLR,,0.00,WeatherDisplay:10.37,2013-09-22 05:37:00,
2013-09-22 01:42:00,67.1,61.4,29.58,East,90,4.7,4.7,82,0.00,CLR,,0.00,WeatherDisplay:10.37,2013-09-22 05:42:00,
2013-09-22 01:47:00,67.3,61.6,29.58,ESE,112,5.8,5.8,82,0.00,CLR,,0.00,WeatherDisplay:10.37,2013-09-22 05:47:00,
2013-09-22 01:52:00,67.3,61.6,29.57,ESE,112,4.7,4.7,82,0.00,CLR,,0.00,WeatherDisplay:10.37,2013-09-22 05:52:00,
2013-09-22 01:57:00,67.3,61.6,29.57,South,180,4.6,4.6,82,0.00,CLR,,0.00,WeatherDisplay:10.37,2013-09-22 05:57:00,
2013-09-22 02:02:00,67.1,61.4,29.57,ESE,112,1.7,1.7,82,0.00,CLR,,0.00,WeatherDisplay:10.37,2013-09-22 06:02:00,
2013-09-22 02:07:00,67.1,61.4,29.56,ESE,112,4.6,4.6,82,0.00,CLR,,0.00,WeatherDisplay:10.37,2013-09-22 06:07:00,
2013-09-22 02:12:00,67.3,61.6,29.56,SSE,158,3.7,3.7,82,0.00,CLR,,0.00,WeatherDisplay:10.37,2013-09-22 06:12:00,
2013-09-22 02:17:00,67.3,61.6,29.55,SE,135,2.3,2.3,82,0.00,CLR,,0.00,WeatherDisplay:10.37,2013-09-22 06:17:00,
2013-09-22 02:22:00,67.3,61.6,29.55,ESE,112,3.2,3.2,82,0.00,CLR,,0.00,WeatherDisplay:10.37,2013-09-22 06:22:00,
2013-09-22 02:27:00,67.1,61.4,29.56,East,90,2.3,2.3,82,0.00,CLR,,0.00,WeatherDisplay:10.37,2013-09-22 06:27:00,
2013-09-22 02:32:00,67.1,61.4,29.56,ESE,112,3.5,3.5,82,0.00,CLR,,0.00,WeatherDisplay:10.37,2013-09-22 06:32:00,
2013-09-22 02:37:00,67.1,61.4,29.56,South,180,3.5,3.5,82,0.00,CLR,,0.00,WeatherDisplay:10.37,2013-09-22 06:37:00,
2013-09-22 02:42:00,67.5,61.8,29.55,East,90,8.1,8.1,82,0.00,CLR,,0.00,WeatherDisplay:10.37,2013-09-22 06:42:00,
2013-09-22 02:47:00,67.8,62.1,29.55,SE,135,3.5,3.5,82,0.00,CLR,,0.00,WeatherDisplay:10.37,2013-09-22 06:47:00,
2013-09-22 02:52:00,68.0,61.9,29.54,South,180,3.5,3.5,81,0.00,CLR,,0.00,WeatherDisplay:10.37,2013-09-22 06:52:00,
2013-09-22 02:57:00,68.4,62.3,29.54,ESE,112,4.6,4.6,81,0.00,CLR,,0.00,WeatherDisplay:10.37,2013-09-22 06:57:00,
2013-09-22 03:02:00,68.4,62.3,29.54,East,90,4.6,4.6,81,0.00,CLR,,0.00,WeatherDisplay:10.37,2013-09-22 07:02:00,
2013-09-22 03:07:00,68.5,62.1,29.54,ESE,112,4.6,4.6,80,0.00,CLR,,0.00,WeatherDisplay:10.37,2013-09-22 07:07:00,
2013-09-22 03:12:00,68.7,62.3,29.54,ESE,112,4.6,4.6,80,0.00,CLR,,0.00,WeatherDisplay:10.37,2013-09-22 07:12:00,
2013-09-22 03:17:00,68.7,62.3,29.53,NE,45,2.3,2.3,80,0.01,RA,,0.01,WeatherDisplay:10.37,2013-09-22 07:17:00,
2013-09-22 03:22:00,68.4,62.7,29.53,ESE,112,4.6,4.6,82,0.01,RA,,0.01,WeatherDisplay:10.37,2013-09-22 07:22:00,
2013-09-22 03:28:00,68.0,62.6,29.53,South,180,4.6,4.6,83,0.01,,,0.01,WeatherDisplay:10.37,2013-09-22 07:28:00,
2013-09-22 03:33:00,67.8,62.4,29.53,SSE,158,4.2,5.5,83,0.01,CLR,,0.01,WeatherDisplay:10.37,2013-09-22 07:33:00,
2013-09-22 03:38:00,67.8,62.8,29.53,South,180,5.8,5.8,84,0.02,RA,,0.02,WeatherDisplay:10.37,2013-09-22 07:38:00,
2013-09-22 03:43:00,67.6,63.3,29.52,ENE,68,3.5,3.5,86,0.05,RA,,0.05,WeatherDisplay:10.37,2013-09-22 07:43:00,
2013-09-22 03:48:00,67.6,63.3,29.52,NNE,22,5.8,5.8,86,0.05,RA,,0.05,WeatherDisplay:10.37,2013-09-22 07:48:00,
2013-09-22 03:53:00,67.6,63.3,29.52,ESE,112,4.7,4.7,86,0.05,,,0.05,WeatherDisplay:10.37,2013-09-22 07:53:00,
2013-09-22 03:58:00,67.5,63.5,29.52,WNW,292,2.3,2.3,87,0.05,CLR,,0.05,WeatherDisplay:10.37,2013-09-22 07:58:00,
2013-09-22 04:03:00,67.5,63.5,29.52,ESE,112,5.8,5.8,87,0.05,CLR,,0.05,WeatherDisplay:10.37,2013-09-22 08:03:00,
2013-09-22 04:08:00,67.5,63.8,29.52,ESE,112,3.5,3.5,88,0.05,CLR,,0.05,WeatherDisplay:10.37,2013-09-22 08:08:00,
2013-09-22 04:13:00,67.5,63.8,29.52,South,180,3.7,3.7,88,0.05,CLR,,0.05,WeatherDisplay:10.37,2013-09-22 08:13:00,
2013-09-22 04:18:00,67.5,64.1,29.51,West,270,8.1,8.1,89,0.04,CLR,,0.05,WeatherDisplay:10.37,2013-09-22 08:18:00,
2013-09-22 04:23:00,67.5,64.1,29.51,South,180,2.7,2.7,89,0.04,CLR,,0.05,WeatherDisplay:10.37,2013-09-22 08:23:00,
2013-09-22 04:28:00,67.5,64.1,29.51,SE,135,2.3,2.3,89,0.04,CLR,,0.05,WeatherDisplay:10.37,2013-09-22 08:28:00,
2013-09-22 04:33:00,67.5,64.1,29.51,SSE,158,4.6,4.6,89,0.04,CLR,,0.05,WeatherDisplay:10.37,2013-09-22 08:33:00,
2013-09-22 04:38:00,67.6,64.2,29.50,South,180,1.2,1.5,89,0.03,CLR,,0.05,WeatherDisplay:10.37,2013-09-22 08:38:00,
2013-09-22 04:43:00,67.6,64.2,29.50,ESE,112,5.8,5.8,89,0.00,CLR,,0.05,WeatherDisplay:10.37,2013-09-22 08:43:00,
2013-09-22 04:48:00,67.6,64.2,29.50,East,90,3.5,3.5,89,0.00,CLR,,0.05,WeatherDisplay:10.37,2013-09-22 08:48:00,
2013-09-22 04:53:00,67.6,64.2,29.50,East,90,3.5,3.5,89,0.00,CLR,,0.05,WeatherDisplay:10.37,2013-09-22 08:53:00,
2013-09-22 04:58:00,67.6,64.6,29.50,ESE,112,6.3,6.3,90,0.00,CLR,,0.05,WeatherDisplay:10.37,2013-09-22 08:58:00,
2013-09-22 05:03:00,67.6,64.6,29.50,East,90,2.3,2.3,90,0.00,CLR,,0.05,WeatherDisplay:10.37,2013-09-22 09:03:00,
2013-09-22 05:08:00,67.6,64.6,29.50,ESE,112,4.6,4.6,90,0.00,CLR,,0.05,WeatherDisplay:10.37,2013-09-22 09:08:00,
2013-09-22 05:13:00,67.8,64.8,29.50,South,180,2.3,2.3,90,0.00,CLR,,0.05,WeatherDisplay:10.37,2013-09-22 09:13:00,
2013-09-22 05:18:00,67.8,64.8,29.50,SSE,158,2.3,2.3,90,0.00,CLR,,0.05,WeatherDisplay:10.37,2013-09-22 09:18:00,
2013-09-22 05:23:00,67.8,64.8,29.50,SE,135,4.7,4.7,90,0.00,CLR,,0.05,WeatherDisplay:10.37,2013-09-22 09:23:00,
2013-09-22 05:28:00,68.0,65.0,29.49,ESE,112,3.7,3.7,90,0.00,CLR,,0.05,WeatherDisplay:10.37,2013-09-22 09:28:00,
2013-09-22 05:33:00,68.0,64.6,29.49,SSE,158,2.7,2.7,89,0.00,CLR,,0.05,WeatherDisplay:10.37,2013-09-22 09:33:00,
2013-09-22 05:38:00,68.2,64.8,29.49,ESE,112,6.3,6.3,89,0.00,CLR,,0.05,WeatherDisplay:10.37,2013-09-22 09:38:00,
2013-09-22 05:43:00,68.4,65.0,29.49,South,180,5.3,5.3,89,0.00,CLR,,0.05,WeatherDisplay:10.37,2013-09-22 09:43:00,
2013-09-22 05:48:00,68.4,65.0,29.49,ESE,112,3.7,3.7,89,0.00,CLR,,0.05,WeatherDisplay:10.37,2013-09-22 09:48:00,
2013-09-22 05:53:00,68.5,64.8,29.49,West,270,3.5,3.5,88,0.02,RA,,0.07,WeatherDisplay:10.37,2013-09-22 09:53:00,
2013-09-22 05:58:00,68.4,65.0,29.49,NNE,22,4.6,4.6,89,0.10,RA,,0.15,WeatherDisplay:10.37,2013-09-22 09:58:00,
2013-09-22 06:03:00,67.8,64.4,29.50,South,180,6.9,6.9,89,0.22,RA,,0.29,WeatherDisplay:10.37,2013-09-22 10:03:00,
2013-09-22 06:08:00,67.1,63.7,29.50,SSE,158,9.2,9.2,89,0.28,RA,,0.37,WeatherDisplay:10.37,2013-09-22 10:08:00,
2013-09-22 06:13:00,66.7,63.7,29.50,South,180,3.5,3.5,90,0.35,RA,,0.40,WeatherDisplay:10.37,2013-09-22 10:13:00,
2013-09-22 06:18:00,66.6,63.6,29.51,NW,315,4.6,4.6,90,0.37,RA,,0.43,WeatherDisplay:10.37,2013-09-22 10:18:00,
2013-09-22 06:23:00,65.8,62.8,29.51,ESE,112,3.5,3.5,90,0.41,RA,,0.46,WeatherDisplay:10.37,2013-09-22 10:23:00,
2013-09-22 06:28:00,65.5,62.5,29.51,NE,45,5.8,5.8,90,0.42,RA,,0.47,WeatherDisplay:10.37,2013-09-22 10:28:00,
2013-09-22 06:33:00,65.1,62.1,29.51,ESE,112,1.2,1.3,90,0.44,RA,,0.49,WeatherDisplay:10.37,2013-09-22 10:33:00,
2013-09-22 06:38:00,64.8,61.8,29.53,NE,45,2.7,2.7,90,0.46,RA,,0.51,WeatherDisplay:10.37,2013-09-22 10:38:00,
2013-09-22 06:43:00,64.0,61.0,29.53,South,180,3.5,3.5,90,0.47,RA,,0.53,WeatherDisplay:10.37,2013-09-22 10:43:00,
2013-09-22 06:48:00,63.7,60.7,29.53,South,180,0.0,0.0,90,0.49,RA,,0.55,WeatherDisplay:10.37,2013-09-22 10:48:00,
2013-09-22 06:53:00,63.5,60.5,29.53,NE,45,3.5,3.5,90,0.48,RA,,0.56,WeatherDisplay:10.37,2013-09-22 10:53:00,
2013-09-22 06:58:00,63.3,60.3,29.53,NNE,22,0.0,0.0,90,0.43,RA,,0.58,WeatherDisplay:10.37,2013-09-22 10:58:00,
2013-09-22 07:03:00,63.3,60.3,29.51,NNE,22,0.0,0.0,90,0.32,RA,,0.59,WeatherDisplay:10.37,2013-09-22 11:03:00,
2013-09-22 07:08:00,63.1,60.1,29.51,NW,315,1.1,1.1,90,0.27,RA,,0.60,WeatherDisplay:10.37,2013-09-22 11:08:00,
2013-09-22 07:13:00,63.0,60.0,29.51,NNE,22,2.3,2.4,90,0.20,RA,,0.60,WeatherDisplay:10.37,2013-09-22 11:13:00,
2013-09-22 07:18:00,62.6,59.6,29.53,SSE,158,3.5,3.5,90,0.19,RA,,0.61,WeatherDisplay:10.37,2013-09-22 11:18:00,
2013-09-22 07:24:00,62.6,59.6,29.53,NNE,22,1.2,1.5,90,0.15,RA,,0.61,WeatherDisplay:10.37,2013-09-22 11:24:00,
2013-09-22 07:29:00,62.4,59.4,29.54,WNW,292,4.6,4.6,90,0.15,RA,,0.62,WeatherDisplay:10.37,2013-09-22 11:29:00,
2013-09-22 07:34:00,62.2,59.5,29.54,West,270,3.5,3.5,91,0.13,RA,,0.62,WeatherDisplay:10.37,2013-09-22 11:34:00,
2013-09-22 07:39:00,62.2,59.5,29.54,ESE,112,1.2,1.2,91,0.12,RA,,0.63,WeatherDisplay:10.37,2013-09-22 11:39:00,
2013-09-22 07:44:00,62.2,59.5,29.54,WNW,292,2.7,2.7,91,0.10,RA,,0.63,WeatherDisplay:10.37,2013-09-22 11:44:00,
2013-09-22 07:49:00,62.2,59.5,29.54,NW,315,3.5,3.5,91,0.08,,,0.63,WeatherDisplay:10.37,2013-09-22 11:49:00,
2013-09-22 07:54:00,62.1,59.4,29.54,WNW,292,2.3,2.3,91,0.07,CLR,,0.63,WeatherDisplay:10.37,2013-09-22 11:54:00,
2013-09-22 07:59:00,62.1,59.4,29.54,WNW,292,0.0,0.0,91,0.06,RA,,0.64,WeatherDisplay:10.37,2013-09-22 11:59:00,
2013-09-22 08:04:00,62.1,59.4,29.54,SSE,158,2.3,2.3,91,0.05,RA,,0.65,WeatherDisplay:10.37,2013-09-22 12:04:00,
2013-09-22 08:09:00,62.1,59.7,29.54,WSW,248,0.0,0.0,92,0.05,RA,,0.65,WeatherDisplay:10.37,2013-09-22 12:09:00,
2013-09-22 08:14:00,62.1,59.7,29.54,NE,45,1.2,1.2,92,0.05,RA,,0.65,WeatherDisplay:10.37,2013-09-22 12:14:00,
2013-09-22 08:19:00,62.1,59.7,29.54,ENE,68,0.0,0.0,92,0.04,CLR,,0.65,WeatherDisplay:10.37,2013-09-22 12:19:00,
2013-09-22 08:24:00,62.1,59.7,29.54,SSE,158,0.0,0.0,92,0.05,RA,,0.66,WeatherDisplay:10.37,2013-09-22 12:24:00,
2013-09-22 08:30:00,62.1,59.7,29.55,WNW,292,2.3,2.3,92,0.05,RA,,0.67,WeatherDisplay:10.37,2013-09-22 12:30:00,
2013-09-22 08:35:00,62.2,59.8,29.55,West,270,0.0,0.0,92,0.05,RA,,0.67,WeatherDisplay:10.37,2013-09-22 12:35:00,
2013-09-22 08:40:00,62.4,60.0,29.55,WSW,248,0.0,0.0,92,0.04,,,0.67,WeatherDisplay:10.37,2013-09-22 12:40:00,
2013-09-22 08:45:00,62.4,60.0,29.55,SE,135,0.0,0.0,92,0.04,CLR,,0.67,WeatherDisplay:10.37,2013-09-22 12:45:00,
2013-09-22 08:50:00,62.6,60.2,29.55,West,270,0.0,0.0,92,0.04,CLR,,0.67,WeatherDisplay:10.37,2013-09-22 12:50:00,
2013-09-22 08:55:00,62.8,60.4,29.55,WNW,282,0.0,0.0,92,0.03,CLR,,0.67,WeatherDisplay:10.37,2013-09-22 12:55:00,
2013-09-22 09:00:00,62.9,60.3,29.55,NNW,335,0.0,0.0,91,0.03,CLR,,0.67,WeatherDisplay:10.37,2013-09-22 13:00:00,
2013-09-22 09:05:00,63.0,60.3,29.55,East,90,0.0,0.0,91,0.03,CLR,,0.67,WeatherDisplay:10.37,2013-09-22 13:05:00,
2013-09-22 09:10:00,63.0,60.3,29.55,South,180,0.0,0.0,91,0.02,CLR,,0.67,WeatherDisplay:10.37,2013-09-22 13:10:00,
2013-09-22 09:15:00,63.1,60.4,29.55,South,180,1.7,1.7,91,0.02,CLR,,0.67,WeatherDisplay:10.37,2013-09-22 13:15:00,
2013-09-22 09:20:00,63.3,60.6,29.55,WSW,248,1.2,1.5,91,0.01,CLR,,0.67,WeatherDisplay:10.37,2013-09-22 13:20:00,
2013-09-22 09:25:00,63.3,60.6,29.55,WNW,292,2.3,2.3,91,0.01,CLR,,0.67,WeatherDisplay:10.37,2013-09-22 13:25:00,
2013-09-22 09:30:00,63.3,60.6,29.56,WNW,292,0.0,0.0,91,0.00,CLR,,0.67,WeatherDisplay:10.37,2013-09-22 13:30:00,
2013-09-22 09:35:00,63.5,60.8,29.56,WNW,292,3.7,3.7,91,0.00,CLR,,0.67,WeatherDisplay:10.37,2013-09-22 13:35:00,
2013-09-22 09:40:00,63.7,60.7,29.56,WNW,292,2.3,2.3,90,0.00,CLR,,0.67,WeatherDisplay:10.37,2013-09-22 13:40:00,
2013-09-22 09:45:00,63.9,60.9,29.56,West,270,1.2,1.2,90,0.00,CLR,,0.67,WeatherDisplay:10.37,2013-09-22 13:45:00,
2013-09-22 09:50:00,63.3,60.0,29.56,West,270,1.2,1.2,89,0.00,CLR,,0.67,WeatherDisplay:10.37,2013-09-22 13:50:00,
2013-09-22 09:55:00,63.3,60.3,29.56,NE,45,2.3,2.3,90,0.00,CLR,,0.67,WeatherDisplay:10.37,2013-09-22 13:55:00,
2013-09-22 10:00:00,63.3,60.3,29.56,ENE,68,5.8,5.8,90,0.00,CLR,,0.67,WeatherDisplay:10.37,2013-09-22 14:00:00,
2013-09-22 10:05:00,63.5,60.5,29.56,South,180,2.3,2.3,90,0.00,CLR,,0.67,WeatherDisplay:10.37,2013-09-22 14:05:00,
2013-09-22 10:10:00,63.5,60.5,29.56,NE,45,2.3,2.3,90,0.00,CLR,,0.67,WeatherDisplay:10.37,2013-09-22 14:10:00,
2013-09-22 10:15:00,63.5,60.5,29.55,South,180,1.2,1.2,90,0.00,CLR,,0.67,WeatherDisplay:10.37,2013-09-22 14:15:00,
2013-09-22 10:20:00,63.9,60.6,29.55,NNE,22,1.2,1.2,89,0.00,CLR,,0.67,WeatherDisplay:10.37,2013-09-22 14:20:00,
2013-09-22 10:25:00,63.9,60.6,29.55,SE,135,2.3,2.3,89,0.00,CLR,,0.67,WeatherDisplay:10.37,2013-09-22 14:25:00,
2013-09-22 10:30:00,64.0,60.7,29.55,WNW,292,3.5,3.5,89,0.00,CLR,,0.67,WeatherDisplay:10.37,2013-09-22 14:30:00,
2013-09-22 10:35:00,64.4,60.8,29.55,NNE,22,2.3,2.3,88,0.00,CLR,,0.67,WeatherDisplay:10.37,2013-09-22 14:35:00,
2013-09-22 10:40:00,65.1,61.5,29.55,NE,45,1.7,1.7,88,0.00,CLR,,0.67,WeatherDisplay:10.37,2013-09-22 14:40:00,
2013-09-22 10:45:00,65.3,60.7,29.55,NE,45,2.3,2.3,85,0.00,CLR,,0.67,WeatherDisplay:10.37,2013-09-22 14:45:00,
2013-09-22 10:50:00,65.7,61.4,29.55,ENE,68,1.2,0.0,86,0.00,CLR,,0.67,WeatherDisplay:10.37,2013-09-22 14:50:00,
2013-09-22 10:55:00,66.2,61.6,29.55,SE,135,2.2,2.2,85,0.00,CLR,,0.67,WeatherDisplay:10.37,2013-09-22 14:55:00,
2013-09-22 11:00:00,66.6,60.9,29.55,ENE,68,4.6,4.6,82,0.00,CLR,,0.67,WeatherDisplay:10.37,2013-09-22 15:00:00,
2013-09-22 11:05:00,66.4,61.4,29.55,NE,45,2.3,2.3,84,0.00,CLR,,0.67,WeatherDisplay:10.37,2013-09-22 15:05:00,
2013-09-22 11:10:00,65.8,60.5,29.55,WNW,292,4.2,4.2,83,0.00,CLR,,0.67,WeatherDisplay:10.37,2013-09-22 15:10:00,
2013-09-22 11:15:00,67.1,61.1,29.55,SSE,158,4.6,4.6,81,0.00,CLR,,0.67,WeatherDisplay:10.37,2013-09-22 15:15:00,
2013-09-22 11:20:00,66.6,61.3,29.55,SE,135,1.2,1.3,83,0.00,CLR,,0.67,WeatherDisplay:10.37,2013-09-22 15:20:00,
2013-09-22 11:25:00,67.3,60.9,29.55,SSE,158,2.3,2.3,80,0.00,CLR,,0.67,WeatherDisplay:10.37,2013-09-22 15:25:00,
2013-09-22 11:30:00,66.4,60.7,29.55,ESE,112,0.0,0.0,82,0.00,CLR,,0.67,WeatherDisplay:10.37,2013-09-22 15:30:00,
2013-09-22 11:35:00,66.7,60.3,29.55,ENE,68,2.3,2.3,80,0.00,CLR,,0.67,WeatherDisplay:10.37,2013-09-22 15:35:00,
2013-09-22 11:40:00,66.9,60.5,29.56,ENE,68,1.2,1.2,80,0.00,CLR,,0.67,WeatherDisplay:10.37,2013-09-22 15:40:00,
2013-09-22 11:45:00,67.1,60.4,29.56,SSE,158,0.0,0.0,79,0.00,CLR,,0.67,WeatherDisplay:10.37,2013-09-22 15:45:00,
2013-09-22 11:50:00,67.8,60.0,29.56,SSE,158,4.7,4.7,76,0.00,CLR,,0.67,WeatherDisplay:10.37,2013-09-22 15:50:00,
2013-09-22 11:55:00,67.3,59.5,29.56,NE,45,2.3,2.3,76,0.00,CLR,,0.67,WeatherDisplay:10.37,2013-09-22 15:55:00,
2013-09-22 12:00:00,68.2,59.2,29.56,NNE,22,3.7,3.8,73,0.00,CLR,,0.67,WeatherDisplay:10.37,2013-09-22 16:00:00,
2013-09-22 12:06:00,68.2,59.2,29.55,NE,45,3.5,3.5,73,0.00,CLR,,0.67,WeatherDisplay:10.37,2013-09-22 16:06:00,
2013-09-22 12:11:00,68.7,59.7,29.55,South,180,2.3,2.3,73,0.00,CLR,,0.67,WeatherDisplay:10.37,2013-09-22 16:11:00,
2013-09-22 12:16:00,69.3,59.1,29.55,West,270,2.3,2.3,70,0.00,CLR,,0.67,WeatherDisplay:10.37,2013-09-22 16:16:00,
2013-09-22 12:21:00,69.1,57.7,29.55,South,180,4.6,4.6,67,0.00,CLR,,0.67,WeatherDisplay:10.37,2013-09-22 16:21:00,
2013-09-22 12:26:00,71.1,57.0,29.55,ENE,68,3.5,3.5,61,0.00,CLR,,0.67,WeatherDisplay:10.37,2013-09-22 16:26:00,
2013-09-22 12:31:00,71.1,56.5,29.55,ENE,68,4.7,4.7,60,0.00,CLR,,0.67,WeatherDisplay:10.37,2013-09-22 16:31:00,
2013-09-22 12:36:00,70.2,56.6,29.55,WNW,292,2.3,2.6,62,0.00,CLR,,0.67,WeatherDisplay:10.37,2013-09-22 16:36:00,
2013-09-22 12:41:00,72.1,57.0,29.55,South,180,5.8,5.8,59,0.00,CLR,,0.67,WeatherDisplay:10.37,2013-09-22 16:41:00,
2013-09-22 12:46:00,70.5,55.9,29.55,NE,45,2.3,2.3,60,0.00,CLR,,0.67,WeatherDisplay:10.37,2013-09-22 16:46:00,
2013-09-22 12:51:00,71.6,57.0,29.55,ENE,68,2.3,2.5,60,0.00,CLR,,0.67,WeatherDisplay:10.37,2013-09-22 16:51:00,
2013-09-22 12:56:00,73.2,57.1,29.55,NNE,22,5.8,5.8,57,0.00,CLR,,0.67,WeatherDisplay:10.37,2013-09-22 16:56:00,
2013-09-22 13:01:00,72.1,55.5,29.55,WNW,292,4.6,4.6,56,0.00,CLR,,0.67,WeatherDisplay:10.37,2013-09-22 17:01:00,
2013-09-22 13:06:00,72.9,56.3,29.55,NNE,22,5.8,5.8,56,0.00,CLR,,0.67,WeatherDisplay:10.37,2013-09-22 17:06:00,
2013-09-22 13:11:00,74.5,56.2,29.55,West,270,4.6,4.6,53,0.00,CLR,,0.67,WeatherDisplay:10.37,2013-09-22 17:11:00,
2013-09-22 13:16:00,72.5,54.9,29.54,SSE,158,4.6,4.6,54,0.00,CLR,,0.67,WeatherDisplay:10.37,2013-09-22 17:16:00,
2013-09-22 13:21:00,74.8,56.0,29.54,NE,45,5.8,5.8,52,0.00,CLR,,0.67,WeatherDisplay:10.37,2013-09-22 17:21:00,
2013-09-22 13:26:00,71.4,53.4,29.54,East,90,2.2,2.2,53,0.00,CLR,,0.67,WeatherDisplay:10.37,2013-09-22 17:26:00,
2013-09-22 13:31:00,72.1,55.0,29.54,WNW,292,3.7,3.7,55,0.00,CLR,,0.67,WeatherDisplay:10.37,2013-09-22 17:31:00,
2013-09-22 13:36:00,72.5,55.4,29.54,East,90,3.2,3.2,55,0.00,CLR,,0.67,WeatherDisplay:10.37,2013-09-22 17:36:00,
2013-09-22 13:41:00,74.3,56.1,29.54,NE,45,2.7,2.7,53,0.00,CLR,,0.67,WeatherDisplay:10.37,2013-09-22 17:41:00,
2013-09-22 13:46:00,76.3,56.3,29.54,ESE,112,5.8,5.8,50,0.00,CLR,,0.67,WeatherDisplay:10.37,2013-09-22 17:46:00,
2013-09-22 13:51:00,73.4,55.2,29.54,SSE,158,3.5,3.5,53,0.00,CLR,,0.67,WeatherDisplay:10.37,2013-09-22 17:51:00,
2013-09-22 13:56:00,74.7,56.4,29.54,West,270,5.8,5.8,53,0.00,CLR,,0.67,WeatherDisplay:10.37,2013-09-22 17:56:00,
2013-09-22 14:01:00,73.2,55.0,29.54,NE,45,2.7,2.7,53,0.00,CLR,,0.67,WeatherDisplay:10.37,2013-09-22 18:01:00,
2013-09-22 14:06:00,73.4,54.2,29.54,South,180,7.8,7.8,51,0.00,CLR,,0.67,WeatherDisplay:10.37,2013-09-22 18:06:00,
2013-09-22 14:11:00,74.7,53.7,29.54,NE,45,6.9,6.9,48,0.00,CLR,,0.67,WeatherDisplay:10.37,2013-09-22 18:11:00,
2013-09-22 14:16:00,74.3,52.8,29.54,SE,135,4.6,4.6,47,0.00,CLR,,0.67,WeatherDisplay:10.37,2013-09-22 18:16:00,
2013-09-22 14:21:00,73.4,53.6,29.54,SE,135,2.7,2.7,50,0.00,CLR,,0.67,WeatherDisplay:10.37,2013-09-22 18:21:00,
2013-09-22 14:26:00,74.8,53.8,29.54,SSE,158,3.7,3.7,48,0.00,CLR,,0.67,WeatherDisplay:10.37,2013-09-22 18:26:00,
2013-09-22 14:31:00,75.7,53.4,29.54,ESE,112,3.7,3.7,46,0.00,CLR,,0.67,WeatherDisplay:10.37,2013-09-22 18:31:00,
2013-09-22 14:36:00,75.7,53.4,29.54,ESE,112,3.7,3.7,46,0.00,CLR,,0.67,WeatherDisplay:10.37,2013-09-22 18:36:00,
2013-09-22 14:41:00,73.4,53.6,29.54,East,90,3.5,3.5,50,0.00,CLR,,0.67,WeatherDisplay:10.37,2013-09-22 18:41:00,
2013-09-22 14:46:00,74.5,54.1,29.54,West,270,4.7,4.7,49,0.00,CLR,,0.67,WeatherDisplay:10.37,2013-09-22 18:46:00,
2013-09-22 14:51:00,74.5,54.1,29.55,West,270,4.7,4.7,49,0.00,CLR,,0.67,WeatherDisplay:10.37,2013-09-22 18:51:00,
2013-09-22 14:56:00,74.5,54.1,29.55,West,270,4.7,4.7,49,0.00,CLR,,0.67,WeatherDisplay:10.37,2013-09-22 18:56:00,
2013-09-22 15:01:00,74.5,54.1,29.55,West,270,4.7,4.7,49,0.00,CLR,,0.67,WeatherDisplay:10.37,2013-09-22 19:01:00,
2013-09-22 15:06:00,74.5,54.1,29.54,West,270,4.7,4.7,49,0.00,CLR,,0.67,WeatherDisplay:10.37,2013-09-22 19:06:00,
2013-09-22 15:11:00,74.5,54.1,29.54,West,270,4.7,4.7,49,0.00,CLR,,0.67,WeatherDisplay:10.37,2013-09-22 19:11:00,
2013-09-22 15:16:00,73.6,52.1,29.55,SSE,158,4.6,4.6,47,0.00,CLR,,0.67,WeatherDisplay:10.37,2013-09-22 19:16:00,
2013-09-22 15:21:00,72.7,52.4,29.55,NE,45,3.7,3.7,49,0.00,CLR,,0.67,WeatherDisplay:10.37,2013-09-22 19:21:00,
2013-09-22 15:26:00,72.5,52.2,29.55,NE,45,3.5,3.5,49,0.00,CLR,,0.67,WeatherDisplay:10.37,2013-09-22 19:26:00,
2013-09-22 15:31:00,73.4,51.4,29.55,NE,45,1.7,1.7,46,0.00,CLR,,0.67,WeatherDisplay:10.37,2013-09-22 19:31:00,
2013-09-22 15:36:00,73.4,51.4,29.55,NE,45,1.7,1.7,46,0.00,CLR,,0.67,WeatherDisplay:10.37,2013-09-22 19:36:00,
2013-09-22 15:41:00,70.2,51.7,29.56,NE,45,2.3,2.4,52,0.00,CLR,,0.67,WeatherDisplay:10.37,2013-09-22 19:41:00,
2013-09-22 15:46:00,69.8,51.9,29.56,NE,45,2.3,2.3,53,0.00,CLR,,0.67,WeatherDisplay:10.37,2013-09-22 19:46:00,
2013-09-22 15:52:00,70.5,52.0,29.55,WNW,292,7.3,7.3,52,0.00,CLR,,0.67,WeatherDisplay:10.37,2013-09-22 19:52:00,
2013-09-22 15:57:00,70.5,52.0,29.55,WNW,292,4.6,4.6,52,0.00,CLR,,0.67,WeatherDisplay:10.37,2013-09-22 19:57:00,
2013-09-22 16:02:00,72.0,50.7,29.55,West,270,1.2,1.2,47,0.00,CLR,,0.67,WeatherDisplay:10.37,2013-09-22 20:02:00,
2013-09-22 16:07:00,73.2,50.0,29.55,SE,135,0.0,0.0,44,0.00,CLR,,0.67,WeatherDisplay:10.37,2013-09-22 20:07:00,
2013-09-22 16:12:00,72.9,49.1,29.55,ENE,68,3.5,3.5,43,0.00,CLR,,0.67,WeatherDisplay:10.37,2013-09-22 20:12:00,
2013-09-22 16:17:00,71.4,49.5,29.55,East,90,2.7,2.7,46,0.00,CLR,,0.67,WeatherDisplay:10.37,2013-09-22 20:17:00,
2013-09-22 16:22:00,71.2,49.9,29.55,ESE,112,1.2,1.2,47,0.00,CLR,,0.67,WeatherDisplay:10.37,2013-09-22 20:22:00,
2013-09-22 16:27:00,73.8,51.1,29.56,WNW,292,2.3,0.0,45,0.00,CLR,,0.67,WeatherDisplay:10.37,2013-09-22 20:27:00,
2013-09-22 16:32:00,74.8,50.2,29.56,West,270,1.7,1.7,42,0.00,CLR,,0.67,WeatherDisplay:10.37,2013-09-22 20:32:00,
2013-09-22 16:37:00,75.0,50.3,29.56,ENE,68,3.5,3.5,42,0.00,CLR,,0.67,WeatherDisplay:10.37,2013-09-22 20:37:00,
2013-09-22 16:42:00,74.1,49.5,29.56,ENE,68,1.2,1.2,42,0.00,CLR,,0.67,WeatherDisplay:10.37,2013-09-22 20:42:00,
2013-09-22 16:47:00,70.9,50.2,29.56,ESE,112,2.3,2.3,48,0.00,CLR,,0.67,WeatherDisplay:10.37,2013-09-22 20:47:00,
2013-09-22 16:52:00,72.1,50.8,29.56,ENE,68,2.3,2.3,47,0.00,CLR,,0.67,WeatherDisplay:10.37,2013-09-22 20:52:00,
2013-09-22 16:57:00,70.0,50.0,29.56,West,270,3.5,3.5,49,0.00,CLR,,0.67,WeatherDisplay:10.37,2013-09-22 20:57:00,
2013-09-22 17:02:00,69.4,50.5,29.56,NW,315,1.2,1.2,51,0.00,CLR,,0.67,WeatherDisplay:10.37,2013-09-22 21:02:00,
2013-09-22 17:07:00,68.5,50.2,29.56,NNE,22,4.6,4.6,52,0.00,CLR,,0.67,WeatherDisplay:10.37,2013-09-22 21:07:00,
2013-09-22 17:12:00,68.7,50.4,29.56,West,270,1.2,0.0,52,0.00,CLR,,0.67,WeatherDisplay:10.37,2013-09-22 21:12:00,
2013-09-22 17:17:00,68.7,50.4,29.57,NE,45,2.3,2.3,52,0.00,CLR,,0.67,WeatherDisplay:10.37,2013-09-22 21:17:00,
2013-09-22 17:22:00,68.2,50.4,29.57,West,270,4.2,4.2,53,0.00,CLR,,0.67,WeatherDisplay:10.37,2013-09-22 21:22:00,
2013-09-22 17:27:00,67.3,49.6,29.57,WNW,292,6.9,6.9,53,0.00,CLR,,0.67,WeatherDisplay:10.37,2013-09-22 21:27:00,
2013-09-22 17:32:00,67.6,49.9,29.57,WNW,292,2.7,2.7,53,0.00,CLR,,0.67,WeatherDisplay:10.37,2013-09-22 21:32:00,
2013-09-22 17:37:00,67.1,49.9,29.57,South,180,2.7,2.7,54,0.00,CLR,,0.67,WeatherDisplay:10.37,2013-09-22 21:37:00,
2013-09-22 17:42:00,67.1,49.9,29.58,NE,45,2.3,2.3,54,0.00,CLR,,0.67,WeatherDisplay:10.37,2013-09-22 21:42:00,
2013-09-22 17:47:00,66.7,50.0,29.58,NE,45,2.2,2.2,55,0.00,CLR,,0.67,WeatherDisplay:10.37,2013-09-22 21:47:00,
2013-09-22 17:52:00,65.8,49.2,29.58,West,270,4.6,4.6,55,0.00,CLR,,0.67,WeatherDisplay:10.37,2013-09-22 21:52:00,
2013-09-22 17:57:00,65.3,48.7,29.58,NE,45,2.2,2.2,55,0.00,CLR,,0.67,WeatherDisplay:10.37,2013-09-22 21:57:00,
2013-09-22 18:02:00,65.3,48.7,29.58,South,180,3.5,3.5,55,0.00,CLR,,0.67,WeatherDisplay:10.37,2013-09-22 22:02:00,
2013-09-22 18:07:00,65.1,49.0,29.58,WNW,292,3.5,3.5,56,0.00,CLR,,0.67,WeatherDisplay:10.37,2013-09-22 22:07:00,
2013-09-22 18:13:00,64.8,47.8,29.58,NNE,22,5.8,5.8,54,0.00,CLR,,0.67,WeatherDisplay:10.37,2013-09-22 22:13:00,
2013-09-22 18:18:00,64.8,48.2,29.59,ENE,68,4.6,4.6,55,0.00,CLR,,0.67,WeatherDisplay:10.37,2013-09-22 22:18:00,
2013-09-22 18:23:00,64.4,47.9,29.59,SSE,158,3.5,3.5,55,0.00,CLR,,0.67,WeatherDisplay:10.37,2013-09-22 22:23:00,
2013-09-22 18:28:00,63.7,47.2,29.59,West,270,5.8,5.8,55,0.00,CLR,,0.67,WeatherDisplay:10.37,2013-09-22 22:28:00,
2013-09-22 18:33:00,63.3,47.3,29.59,WNW,292,4.6,4.6,56,0.00,CLR,,0.67,WeatherDisplay:10.37,2013-09-22 22:33:00,
2013-09-22 18:38:00,62.8,46.9,29.60,NNE,22,8.1,8.1,56,0.00,CLR,,0.67,WeatherDisplay:10.37,2013-09-22 22:38:00,
2013-09-22 18:43:00,62.6,46.7,29.60,West,270,6.3,6.3,56,0.00,CLR,,0.67,WeatherDisplay:10.37,2013-09-22 22:43:00,
2013-09-22 18:48:00,62.4,46.5,29.60,NE,45,2.3,2.5,56,0.00,CLR,,0.67,WeatherDisplay:10.37,2013-09-22 22:48:00,
2013-09-22 18:53:00,62.6,47.1,29.61,NE,45,2.3,2.3,57,0.00,CLR,,0.67,WeatherDisplay:10.37,2013-09-22 22:53:00,
2013-09-22 18:58:00,61.9,46.5,29.61,NE,45,3.5,3.5,57,0.00,CLR,,0.67,WeatherDisplay:10.37,2013-09-22 22:58:00,
2013-09-22 19:03:00,61.3,45.9,29.61,NW,315,5.8,5.8,57,0.00,CLR,,0.67,WeatherDisplay:10.37,2013-09-22 23:03:00,
2013-09-22 19:08:00,61.5,46.6,29.61,SSE,158,3.5,3.5,58,0.00,CLR,,0.67,WeatherDisplay:10.37,2013-09-22 23:08:00,
2013-09-22 19:13:00,61.3,46.8,29.61,West,270,2.3,2.3,59,0.00,CLR,,0.67,WeatherDisplay:10.37,2013-09-22 23:13:00,
2013-09-22 19:18:00,61.2,46.8,29.62,NNE,22,3.5,3.5,59,0.00,CLR,,0.67,WeatherDisplay:10.37,2013-09-22 23:18:00,
2013-09-22 19:23:00,60.6,46.2,29.62,WNW,292,3.5,3.5,59,0.00,CLR,,0.67,WeatherDisplay:10.37,2013-09-22 23:23:00,
2013-09-22 19:28:00,60.4,46.4,29.62,WNW,292,2.3,2.3,60,0.00,CLR,,0.67,WeatherDisplay:10.37,2013-09-22 23:28:00,
2013-09-22 19:33:00,60.1,47.0,29.62,West,270,4.6,4.6,62,0.00,CLR,,0.67,WeatherDisplay:10.37,2013-09-22 23:33:00,
2013-09-22 19:38:00,59.7,46.7,29.62,NE,45,2.3,2.3,62,0.00,CLR,,0.67,WeatherDisplay:10.37,2013-09-22 23:38:00,
2013-09-22 19:43:00,59.5,46.5,29.63,NE,45,2.3,2.3,62,0.00,CLR,,0.67,WeatherDisplay:10.37,2013-09-22 23:43:00,
2013-09-22 19:48:00,58.8,46.2,29.63,WNW,292,4.6,4.6,63,0.00,CLR,,0.67,WeatherDisplay:10.37,2013-09-22 23:48:00,
2013-09-22 19:53:00,58.5,46.4,29.64,West,270,4.2,4.2,64,0.00,CLR,,0.67,WeatherDisplay:10.37,2013-09-22 23:53:00,
2013-09-22 19:58:00,58.5,46.4,29.64,West,270,2.3,2.3,64,0.00,CLR,,0.67,WeatherDisplay:10.37,2013-09-22 23:58:00,
2013-09-22 20:03:00,58.3,46.6,29.65,South,180,3.5,3.5,65,0.00,CLR,,0.67,WeatherDisplay:10.37,2013-09-23 00:03:00,
2013-09-22 20:08:00,57.7,46.0,29.65,NW,315,4.2,4.2,65,0.00,CLR,,0.67,WeatherDisplay:10.37,2013-09-23 00:08:00,
2013-09-22 20:13:00,57.7,46.0,29.65,WNW,292,2.3,2.3,65,0.00,CLR,,0.67,WeatherDisplay:10.37,2013-09-23 00:13:00,
2013-09-22 20:18:00,57.7,46.0,29.66,NE,45,3.5,3.5,65,0.00,CLR,,0.67,WeatherDisplay:10.37,2013-09-23 00:18:00,
2013-09-22 20:23:00,57.4,46.1,29.66,SSE,158,3.5,3.5,66,0.00,CLR,,0.67,WeatherDisplay:10.37,2013-09-23 00:23:00,
2013-09-22 20:28:00,57.2,46.3,29.66,NNE,22,1.2,0.0,67,0.00,CLR,,0.67,WeatherDisplay:10.37,2013-09-23 00:28:00,
2013-09-22 20:33:00,57.2,46.7,29.66,WSW,248,0.0,0.0,68,0.00,CLR,,0.67,WeatherDisplay:10.37,2013-09-23 00:33:00,
2013-09-22 20:38:00,56.7,46.3,29.66,SSE,158,1.2,0.0,68,0.00,CLR,,0.67,WeatherDisplay:10.37,2013-09-23 00:38:00,
2013-09-22 20:43:00,56.1,46.4,29.67,WSW,248,2.3,0.0,70,0.00,CLR,,0.67,WeatherDisplay:10.37,2013-09-23 00:43:00,
2013-09-22 20:48:00,55.8,45.8,29.67,West,270,2.3,2.3,69,0.00,CLR,,0.67,WeatherDisplay:10.37,2013-09-23 00:48:00,
2013-09-22 20:53:00,55.2,45.6,29.67,WNW,292,2.3,0.0,70,0.00,CLR,,0.67,WeatherDisplay:10.37,2013-09-23 00:53:00,
2013-09-22 20:58:00,55.2,46.0,29.67,NNE,22,2.2,2.2,71,0.00,CLR,,0.67,WeatherDisplay:10.37,2013-09-23 00:58:00,
2013-09-22 21:03:00,55.0,45.4,29.68,WNW,292,2.3,2.3,70,0.00,CLR,,0.67,WeatherDisplay:10.37,2013-09-23 01:03:00,
2013-09-22 21:08:00,55.2,45.2,29.68,ENE,68,1.2,0.0,69,0.00,CLR,,0.67,WeatherDisplay:10.37,2013-09-23 01:08:00,
2013-09-22 21:13:00,54.5,44.5,29.68,West,270,1.7,1.7,69,0.00,CLR,,0.67,WeatherDisplay:10.37,2013-09-23 01:13:00,
2013-09-22 21:18:00,54.3,44.3,29.68,West,270,1.1,1.1,69,0.00,CLR,,0.67,WeatherDisplay:10.37,2013-09-23 01:18:00,
2013-09-22 21:24:00,54.1,44.2,29.68,NW,315,1.2,1.2,69,0.00,CLR,,0.67,WeatherDisplay:10.37,2013-09-23 01:24:00,
2013-09-22 21:29:00,54.0,44.1,29.68,NNE,22,1.2,1.2,69,0.00,CLR,,0.67,WeatherDisplay:10.37,2013-09-23 01:29:00,
2013-09-22 21:34:00,54.1,44.2,29.68,NW,315,1.2,1.2,69,0.00,CLR,,0.67,WeatherDisplay:10.37,2013-09-23 01:34:00,
2013-09-22 21:39:00,53.6,44.0,29.68,West,270,2.3,2.3,70,0.00,CLR,,0.67,WeatherDisplay:10.37,2013-09-23 01:39:00,
2013-09-22 21:44:00,53.4,43.9,29.68,NW,315,2.3,2.3,70,0.00,CLR,,0.67,WeatherDisplay:10.37,2013-09-23 01:44:00,
2013-09-22 21:49:00,53.4,43.9,29.68,West,270,1.2,1.2,70,0.00,CLR,,0.67,WeatherDisplay:10.37,2013-09-23 01:49:00,
2013-09-22 21:54:00,53.1,43.6,29.69,NW,315,1.2,1.2,70,0.00,CLR,,0.67,WeatherDisplay:10.37,2013-09-23 01:54:00,
2013-09-22 21:59:00,53.2,43.7,29.69,East,90,1.2,1.2,70,0.00,CLR,,0.67,WeatherDisplay:10.37,2013-09-23 01:59:00,
2013-09-22 22:04:00,52.9,43.0,29.69,WNW,292,2.3,2.3,69,0.00,CLR,,0.67,WeatherDisplay:10.37,2013-09-23 02:04:00,
2013-09-22 22:09:00,52.9,43.0,29.69,WNW,292,2.3,2.3,69,0.00,CLR,,0.67,WeatherDisplay:10.37,2013-09-23 02:09:00,
2013-09-22 22:14:00,52.9,42.6,29.69,WNW,292,3.5,3.5,68,0.00,CLR,,0.67,WeatherDisplay:10.37,2013-09-23 02:14:00,
2013-09-22 22:19:00,53.1,42.8,29.69,NNW,338,2.7,2.7,68,0.00,CLR,,0.67,WeatherDisplay:10.37,2013-09-23 02:19:00,
2013-09-22 22:24:00,52.7,42.8,29.69,West,270,1.2,1.2,69,0.00,CLR,,0.67,WeatherDisplay:10.37,2013-09-23 02:24:00,
2013-09-22 22:29:00,52.7,42.8,29.70,West,270,2.3,2.3,69,0.00,CLR,,0.67,WeatherDisplay:10.37,2013-09-23 02:29:00,
2013-09-22 22:34:00,52.5,42.6,29.70,NNE,22,2.2,2.2,69,0.00,CLR,,0.67,WeatherDisplay:10.37,2013-09-23 02:34:00,
2013-09-22 22:39:00,52.5,42.2,29.70,WNW,292,2.7,2.7,68,0.00,CLR,,0.67,WeatherDisplay:10.37,2013-09-23 02:39:00,
2013-09-22 22:45:00,52.3,42.4,29.70,West,270,2.7,2.7,69,0.00,CLR,,0.67,WeatherDisplay:10.37,2013-09-23 02:45:00,
2013-09-22 22:50:00,52.2,42.0,29.71,West,270,1.2,0.0,68,0.00,CLR,,0.67,WeatherDisplay:10.37,2013-09-23 02:50:00,
2013-09-22 22:55:00,52.2,42.3,29.71,NW,315,1.2,1.2,69,0.00,CLR,,0.67,WeatherDisplay:10.37,2013-09-23 02:55:00,
2013-09-22 23:00:00,52.0,41.8,29.71,West,270,2.3,2.3,68,0.00,CLR,,0.67,WeatherDisplay:10.37,2013-09-23 03:00:00,
2013-09-22 23:05:00,52.0,41.8,29.71,West,270,2.3,2.3,68,0.00,CLR,,0.67,WeatherDisplay:10.37,2013-09-23 03:05:00,
2013-09-22 23:10:00,51.8,41.6,29.71,West,270,1.7,2.9,68,0.00,CLR,,0.67,WeatherDisplay:10.37,2013-09-23 03:10:00,
2013-09-22 23:15:00,51.8,41.6,29.71,West,272,2.0,3.0,68,0.00,CLR,,0.67,WeatherDisplay:10.37,2013-09-23 03:15:00,
2013-09-22 23:20:00,51.8,41.2,29.71,West,264,2.0,6.0,67,0.00,CLR,,0.67,WeatherDisplay:10.37,2013-09-23 03:20:00,
2013-09-22 23:25:00,52.2,41.2,29.71,WSW,248,2.3,2.3,66,0.00,CLR,,0.67,WeatherDisplay:10.37,2013-09-23 03:25:00,
2013-09-22 23:30:00,51.8,40.4,29.71,WNW,297,3.0,6.0,65,0.00,CLR,,0.67,WeatherDisplay:10.37,2013-09-23 03:30:00,
2013-09-22 23:35:00,51.9,40.1,29.71,WNW,297,2.0,5.0,64,0.00,CLR,,0.67,WeatherDisplay:10.37,2013-09-23 03:35:00,
2013-09-22 23:40:00,51.8,40.0,29.71,West,270,3.5,3.5,64,0.00,CLR,,0.67,WeatherDisplay:10.37,2013-09-23 03:40:00,
2013-09-22 23:45:00,51.8,39.6,29.71,WNW,296,1.0,4.0,63,0.00,CLR,,0.67,WeatherDisplay:10.37,2013-09-23 03:45:00,
2013-09-22 23:50:00,51.6,39.4,29.71,WNW,282,3.0,7.0,63,0.00,CLR,,0.67,WeatherDisplay:10.37,2013-09-23 03:50:00,
2013-09-22 23:55:00,51.8,39.6,29.71,WSW,248,2.3,2.3,63,0.00,CLR,,0.67,WeatherDisplay:10.37,2013-09-23 03:55:00,